User: anonymous   Login
Location: Janeiro
(34.9957°N, 76.7652°W)
Time: 09:38:11
(UTC+00:00)
Language:

OAO 3 Rocket - Orbit

View from above orbital plane
View from above orbital plane
View from above satellite
View from above satellite

Ground track
Ground track

The orbit data is extracted from the following two-line orbital elements,

1  6155U 72065B   20055.70397661 +.00000079 +00000-0 +16087-4 0  9990
2  6155 035.0032 181.5851 0038613 295.5428 064.1282 14.71566702515853
Epoch (UTC): 24 February 2020 16:53:43
Eccentricity: 0.0038613
inclination: 35.0032°
perigee height: 629 km
apogee height: 683 km
right ascension of ascending node: 181.5851°
argument of perigee: 295.5428°
revolutions per day: 14.71566702
mean anomaly at epoch: 64.1282°
orbit number at epoch: 51585

The dashed part of the orbit path shows where the satellite is in the earth's shadow,  

DLR